Saint Bonnet de Bellac- Haute Vienne - France
Donnes mto: mardi, 17/07/2012
Date Horaire Temp. E. Hum. E. P.atmo. Pluie Vent Direction Direction Ensoleilleme Solaire P. de rose Temp au vent Rafales
17/07/2012 00:00 14,8 C 75 % 1028,4 hPa 0,0 mm 0,0 km/h (0 Bft) SO 225 0 min 0 W/m 10,4 C 14,8 C 0,0 km/h (0 Bft)
17/07/2012 00:10 14,5 C 76 % 1028,3 hPa 0,0 mm 0,0 km/h (0 Bft) S 180 0 min 0 W/m 10,3 C 14,5 C 0,0 km/h (0 Bft)
17/07/2012 00:20 14,3 C 77 % 1028,4 hPa 0,0 mm 0,0 km/h (0 Bft) S-SO 202 0 min 0 W/m 10,3 C 14,3 C 0,0 km/h (0 Bft)
17/07/2012 00:30 14,1 C 77 % 1028,5 hPa 0,0 mm 0,0 km/h (0 Bft) SO 225 0 min 0 W/m 10,1 C 14,1 C 0,0 km/h (0 Bft)
17/07/2012 00:40 13,9 C 78 % 1028,6 hPa 0,0 mm 0,0 km/h (0 Bft) O-NO 292 0 min 0 W/m 10,1 C 13,9 C 0,0 km/h (0 Bft)
17/07/2012 00:50 13,7 C 78 % 1028,7 hPa 0,0 mm 0,0 km/h (0 Bft) O 270 0 min 0 W/m 9,9 C 13,7 C 0,0 km/h (0 Bft)
17/07/2012 01:00 13,6 C 79 % 1028,7 hPa 0,0 mm 0,0 km/h (0 Bft) S-SO 202 0 min 0 W/m 10,0 C 13,6 C 0,0 km/h (0 Bft)
17/07/2012 01:10 13,4 C 80 % 1028,8 hPa 0,0 mm 0,0 km/h (0 Bft) SO 225 0 min 0 W/m 10,0 C 13,4 C 0,0 km/h (0 Bft)
17/07/2012 01:20 13,2 C 80 % 1028,8 hPa 0,0 mm 0,0 km/h (0 Bft) S-SO 202 0 min 0 W/m 9,8 C 13,2 C 0,0 km/h (0 Bft)
17/07/2012 01:30 12,9 C 80 % 1028,8 hPa 0,0 mm 0,0 km/h (0 Bft) SO 225 0 min 0 W/m 9,5 C 12,9 C 0,0 km/h (0 Bft)
17/07/2012 01:40 12,6 C 81 % 1028,8 hPa 0,0 mm 0,0 km/h (0 Bft) O-SO 247 0 min 0 W/m 9,4 C 12,6 C 0,0 km/h (0 Bft)
17/07/2012 01:50 12,5 C 82 % 1028,7 hPa 0,0 mm 0,0 km/h (0 Bft) S-SO 202 0 min 0 W/m 9,5 C 12,5 C 0,0 km/h (0 Bft)
17/07/2012 02:00 12,2 C 82 % 1028,8 hPa 0,0 mm 0,0 km/h (0 Bft) S-SO 202 0 min 0 W/m 9,2 C 12,2 C 0,0 km/h (0 Bft)
17/07/2012 02:10 12,1 C 83 % 1028,9 hPa 0,0 mm 0,0 km/h (0 Bft) S 180 0 min 0 W/m 9,3 C 12,1 C 0,0 km/h (0 Bft)
17/07/2012 02:20 11,8 C 83 % 1028,9 hPa 0,0 mm 0,0 km/h (0 Bft) S-SO 202 0 min 0 W/m 9,0 C 11,8 C 0,0 km/h (0 Bft)
17/07/2012 02:30 11,6 C 84 % 1028,8 hPa 0,0 mm 0,0 km/h (0 Bft) S-SO 202 0 min 0 W/m 9,0 C 11,6 C 0,0 km/h (0 Bft)
17/07/2012 02:40 11,5 C 84 % 1028,8 hPa 0,0 mm 0,0 km/h (0 Bft) SO 225 0 min 0 W/m 8,9 C 11,5 C 0,0 km/h (0 Bft)
17/07/2012 02:50 11,4 C 85 % 1028,7 hPa 0,0 mm 0,0 km/h (0 Bft) S-SO 202 0 min 0 W/m 9,0 C 11,4 C 0,0 km/h (0 Bft)
17/07/2012 03:02 11,2 C 85 % 1028,6 hPa 0,0 mm 0,0 km/h (0 Bft) S-SO 202 0 min 0 W/m 8,8 C 11,2 C 0,0 km/h (0 Bft)
17/07/2012 03:10 11,1 C 86 % 1028,8 hPa 0,0 mm 0,0 km/h (0 Bft) S-SO 202 0 min 0 W/m 8,8 C 11,1 C 0,0 km/h (0 Bft)
17/07/2012 03:20 10,9 C 86 % 1028,7 hPa 0,0 mm 0,0 km/h (0 Bft) S-SO 202 0 min 0 W/m 8,7 C 10,9 C 0,0 km/h (0 Bft)
17/07/2012 03:30 10,8 C 86 % 1028,6 hPa 0,0 mm 0,0 km/h (0 Bft) SO 225 0 min 0 W/m 8,6 C 10,8 C 0,0 km/h (0 Bft)
17/07/2012 03:40 10,8 C 87 % 1028,6 hPa 0,0 mm 0,0 km/h (0 Bft) SO 225 0 min 0 W/m 8,7 C 10,8 C 0,0 km/h (0 Bft)
17/07/2012 03:50 10,8 C 87 % 1028,7 hPa 0,0 mm 0,0 km/h (0 Bft) S-SO 202 0 min 0 W/m 8,7 C 10,8 C 0,0 km/h (0 Bft)
17/07/2012 04:00 10,7 C 87 % 1028,6 hPa 0,0 mm 0,0 km/h (0 Bft) SO 225 0 min 0 W/m 8,6 C 10,7 C 0,0 km/h (0 Bft)
17/07/2012 04:10 10,6 C 87 % 1028,5 hPa 0,0 mm 0,0 km/h (0 Bft) S-SO 202 0 min 0 W/m 8,5 C 10,6 C 0,0 km/h (0 Bft)
17/07/2012 04:20 10,5 C 87 % 1028,5 hPa 0,0 mm 0,0 km/h (0 Bft) S 180 0 min 0 W/m 8,4 C 10,5 C 0,0 km/h (0 Bft)
17/07/2012 04:30 10,3 C 87 % 1028,4 hPa 0,0 mm 0,0 km/h (0 Bft) S-SO 202 0 min 0 W/m 8,2 C 10,3 C 0,0 km/h (0 Bft)
17/07/2012 04:40 10,2 C 87 % 1028,4 hPa 0,0 mm 0,0 km/h (0 Bft) S-SO 202 0 min 0 W/m 8,1 C 10,2 C 0,0 km/h (0 Bft)
17/07/2012 04:50 10,1 C 88 % 1028,5 hPa 0,0 mm 0,0 km/h (0 Bft) S-SO 202 0 min 0 W/m 8,2 C 10,1 C 0,0 km/h (0 Bft)
17/07/2012 05:00 10,1 C 88 % 1028,5 hPa 0,0 mm 0,0 km/h (0 Bft) S-SO 202 0 min 0 W/m 8,2 C 10,1 C 0,0 km/h (0 Bft)
17/07/2012 05:10 10,0 C 88 % 1028,5 hPa 0,0 mm 0,0 km/h (0 Bft) S-SO 202 0 min 0 W/m 8,1 C 10,0 C 0,0 km/h (0 Bft)
17/07/2012 05:20 9,9 C 88 % 1028,5 hPa 0,0 mm 0,0 km/h (0 Bft) S-SO 202 0 min 0 W/m 8,0 C 9,9 C 0,0 km/h (0 Bft)
17/07/2012 05:30 9,8 C 89 % 1028,5 hPa 0,0 mm 0,0 km/h (0 Bft) S-SO 202 0 min 0 W/m 8,1 C 9,8 C 0,0 km/h (0 Bft)
17/07/2012 05:40 9,6 C 89 % 1028,5 hPa 0,0 mm 0,0 km/h (0 Bft) S-SO 202 0 min 0 W/m 7,9 C 9,6 C 0,0 km/h (0 Bft)
17/07/2012 05:50 9,5 C 89 % 1028,3 hPa 0,0 mm 0,0 km/h (0 Bft) S-SO 202 0 min 0 W/m 7,8 C 9,5 C 0,0 km/h (0 Bft)
17/07/2012 06:00 9,5 C 89 % 1028,3 hPa 0,0 mm 0,0 km/h (0 Bft) S-SO 202 0 min 0 W/m 7,8 C 9,5 C 0,0 km/h (0 Bft)
17/07/2012 06:10 9,4 C 89 % 1028,3 hPa 0,0 mm 0,0 km/h (0 Bft) S-SO 202 0 min 0 W/m 7,7 C 9,4 C 0,0 km/h (0 Bft)
17/07/2012 06:20 9,5 C 90 % 1028,3 hPa 0,0 mm 0,0 km/h (0 Bft) S-SO 202 0 min 0 W/m 7,9 C 9,5 C 0,0 km/h (0 Bft)
17/07/2012 06:30 9,5 C 90 % 1028,4 hPa 0,0 mm 0,0 km/h (0 Bft) S-SO 202 0 min 0 W/m 7,9 C 9,5 C 0,0 km/h (0 Bft)
17/07/2012 06:40 9,5 C 90 % 1028,4 hPa 0,0 mm 0,0 km/h (0 Bft) S-SO 202 0 min 0 W/m 7,9 C 9,5 C 0,0 km/h (0 Bft)
17/07/2012 06:50 9,5 C 90 % 1028,6 hPa 0,0 mm 0,0 km/h (0 Bft) S-SO 202 0 min 0 W/m 7,9 C 9,5 C 0,0 km/h (0 Bft)
17/07/2012 07:00 9,6 C 90 % 1028,5 hPa 0,0 mm 0,0 km/h (0 Bft) S-SO 202 0 min 0 W/m 8,0 C 9,6 C 0,0 km/h (0 Bft)
17/07/2012 07:10 9,8 C 90 % 1028,5 hPa 0,0 mm 0,0 km/h (0 Bft) S-SO 202 0 min 0 W/m 8,2 C 9,8 C 0,0 km/h (0 Bft)
17/07/2012 07:20 10,2 C 90 % 1028,7 hPa 0,0 mm 0,0 km/h (0 Bft) NE 45 0 min 0 W/m 8,6 C 10,2 C 0,0 km/h (0 Bft)
17/07/2012 07:30 10,5 C 90 % 1028,7 hPa 0,0 mm 0,0 km/h (0 Bft) NE 45 0 min 0 W/m 8,9 C 10,5 C 0,0 km/h (0 Bft)
17/07/2012 07:40 10,9 C 90 % 1028,6 hPa 0,0 mm 0,0 km/h (0 Bft) NE 45 0 min 0 W/m 9,3 C 10,9 C 0,0 km/h (0 Bft)
17/07/2012 07:50 11,5 C 91 % 1028,8 hPa 0,0 mm 0,0 km/h (0 Bft) NE 45 0 min 0 W/m 10,1 C 11,5 C 0,0 km/h (0 Bft)
17/07/2012 08:00 12,1 C 91 % 1028,9 hPa 0,0 mm 0,0 km/h (0 Bft) NE 45 0 min 0 W/m 10,7 C 12,1 C 0,0 km/h (0 Bft)
17/07/2012 08:10 12,7 C 91 % 1029,0 hPa 0,0 mm 0,0 km/h (0 Bft) NE 45 0 min 0 W/m 11,3 C 12,7 C 0,0 km/h (0 Bft)
17/07/2012 08:20 13,3 C 91 % 1029,1 hPa 0,0 mm 0,0 km/h (0 Bft) NE 45 0 min 0 W/m 11,9 C 13,3 C 0,0 km/h (0 Bft)
17/07/2012 08:30 13,9 C 91 % 1029,0 hPa 0,0 mm 0,0 km/h (0 Bft) NE 45 0 min 0 W/m 12,5 C 13,9 C 0,0 km/h (0 Bft)
17/07/2012 08:40 14,8 C 89 % 1029,1 hPa 0,0 mm 0,0 km/h (0 Bft) NE 45 0 min 0 W/m 13,0 C 14,8 C 0,0 km/h (0 Bft)
17/07/2012 08:50 15,4 C 88 % 1029,2 hPa 0,0 mm 0,0 km/h (0 Bft) O-SO 247 0 min 0 W/m 13,4 C 15,4 C 0,0 km/h (0 Bft)
17/07/2012 09:00 15,9 C 86 % 1029,3 hPa 0,0 mm 0,0 km/h (0 Bft) NO 315 0 min 0 W/m 13,6 C 15,9 C 0,0 km/h (0 Bft)
17/07/2012 09:10 16,5 C 85 % 1029,3 hPa 0,0 mm 0,7 km/h (0 Bft) O-NO 292 0 min 0 W/m 14,0 C 16,5 C 4,0 km/h (1 Bft)
17/07/2012 09:20 17,1 C 82 % 1029,2 hPa 0,0 mm 0,4 km/h (0 Bft) SO 225 0 min 0 W/m 14,0 C 17,1 C 2,9 km/h (1 Bft)
17/07/2012 09:30 17,6 C 81 % 1029,2 hPa 0,0 mm 0,0 km/h (0 Bft) O 270 0 min 0 W/m 14,3 C 17,6 C 0,0 km/h (0 Bft)
17/07/2012 09:40 18,1 C 79 % 1029,3 hPa 0,0 mm 0,0 km/h (0 Bft) S-SO 202 0 min 0 W/m 14,4 C 18,1 C 0,0 km/h (0 Bft)
17/07/2012 09:50 18,6 C 74 % 1029,3 hPa 0,0 mm 4,0 km/h (1 Bft) SO 225 0 min 0 W/m 13,9 C 18,6 C 7,2 km/h (2 Bft)
17/07/2012 10:00 19,0 C 73 % 1029,3 hPa 0,0 mm 0,0 km/h (0 Bft) O 270 0 min 0 W/m 14,0 C 19,0 C 0,0 km/h (0 Bft)
17/07/2012 10:10 19,5 C 71 % 1029,3 hPa 0,0 mm 1,4 km/h (1 Bft) O-SO 247 0 min 0 W/m 14,1 C 19,5 C 4,0 km/h (1 Bft)
17/07/2012 10:20 19,9 C 71 % 1029,3 hPa 0,0 mm 0,0 km/h (0 Bft) N 360 0 min 0 W/m 14,5 C 19,9 C 0,0 km/h (0 Bft)
17/07/2012 10:30 20,3 C 71 % 1029,3 hPa 0,0 mm 0,4 km/h (0 Bft) N 360 0 min 0 W/m 14,9 C 20,3 C 0,4 km/h (0 Bft)
17/07/2012 10:40 21,0 C 71 % 1029,2 hPa 0,0 mm 0,0 km/h (0 Bft) NE 45 0 min 0 W/m 15,5 C 21,0 C 0,0 km/h (0 Bft)
17/07/2012 10:50 21,7 C 68 % 1029,3 hPa 0,0 mm 0,0 km/h (0 Bft) N 360 0 min 0 W/m 15,5 C 21,7 C 0,0 km/h (0 Bft)
17/07/2012 11:00 22,2 C 67 % 1029,2 hPa 0,0 mm 0,0 km/h (0 Bft) O 270 0 min 0 W/m 15,8 C 22,2 C 0,0 km/h (0 Bft)
17/07/2012 11:10 22,3 C 66 % 1029,2 hPa 0,0 mm 0,0 km/h (0 Bft) NO 315 0 min 0 W/m 15,6 C 22,3 C 3,6 km/h (1 Bft)
17/07/2012 11:20 22,4 C 66 % 1029,2 hPa 0,0 mm 2,2 km/h (1 Bft) NO 315 0 min 0 W/m 15,7 C 22,4 C 3,2 km/h (1 Bft)
17/07/2012 11:30 22,8 C 65 % 1029,0 hPa 0,0 mm 3,6 km/h (1 Bft) N-NE 22 0 min 0 W/m 15,9 C 22,8 C 4,3 km/h (1 Bft)
17/07/2012 11:40 23,4 C 64 % 1029,4 hPa 0,0 mm 1,8 km/h (1 Bft) S-SE 157 0 min 0 W/m 16,2 C 23,4 C 1,8 km/h (1 Bft)
17/07/2012 11:50 23,4 C 63 % 1029,4 hPa 0,0 mm 0,0 km/h (0 Bft) S-SO 202 0 min 0 W/m 15,9 C 23,4 C 2,9 km/h (1 Bft)
17/07/2012 12:00 24,0 C 62 % 1029,4 hPa 0,0 mm 0,7 km/h (0 Bft) SE 135 0 min 0 W/m 16,3 C 24,0 C 0,7 km/h (0 Bft)
17/07/2012 12:10 24,3 C 62 % 1029,4 hPa 0,0 mm 1,1 km/h (1 Bft) O-NO 292 0 min 0 W/m 16,5 C 24,3 C 1,1 km/h (1 Bft)
17/07/2012 12:20 24,4 C 61 % 1029,3 hPa 0,0 mm 0,0 km/h (0 Bft) NE 45 0 min 0 W/m 16,4 C 24,4 C 0,0 km/h (0 Bft)
17/07/2012 12:30 24,5 C 61 % 1029,5 hPa 0,0 mm 1,1 km/h (1 Bft) NO 315 0 min 0 W/m 16,5 C 24,5 C 1,1 km/h (1 Bft)
17/07/2012 12:40 24,5 C 61 % 1029,4 hPa 0,0 mm 1,4 km/h (1 Bft) NO 315 0 min 0 W/m 16,5 C 24,5 C 4,3 km/h (1 Bft)
17/07/2012 12:50 24,1 C 61 % 1029,5 hPa 0,0 mm 2,5 km/h (1 Bft) S-SO 202 0 min 0 W/m 16,1 C 24,1 C 3,6 km/h (1 Bft)
17/07/2012 13:00 24,1 C 61 % 1029,6 hPa 0,0 mm 1,4 km/h (1 Bft) O 270 0 min 0 W/m 16,1 C 24,1 C 4,3 km/h (1 Bft)
17/07/2012 13:10 24,2 C 61 % 1029,5 hPa 0,0 mm 0,0 km/h (0 Bft) NO 315 0 min 0 W/m 16,2 C 24,2 C 0,0 km/h (0 Bft)
17/07/2012 13:20 24,1 C 61 % 1029,4 hPa 0,0 mm 0,0 km/h (0 Bft) NE 45 0 min 0 W/m 16,1 C 24,1 C 3,2 km/h (1 Bft)
17/07/2012 13:30 24,1 C 62 % 1029,3 hPa 0,0 mm 2,5 km/h (1 Bft) E-NE 67 0 min 0 W/m 16,4 C 24,1 C 4,3 km/h (1 Bft)
17/07/2012 13:40 24,2 C 63 % 1029,2 hPa 0,0 mm 2,2 km/h (1 Bft) N-NE 22 0 min 0 W/m 16,7 C 24,2 C 4,0 km/h (1 Bft)
17/07/2012 13:50 24,2 C 61 % 1029,2 hPa 0,0 mm 2,9 km/h (1 Bft) N-NE 22 0 min 0 W/m 16,2 C 24,2 C 3,2 km/h (1 Bft)
17/07/2012 14:00 24,1 C 62 % 1029,1 hPa 0,0 mm 0,0 km/h (0 Bft) NO 315 0 min 0 W/m 16,4 C 24,1 C 0,0 km/h (0 Bft)
17/07/2012 14:10 24,2 C 62 % 1029,0 hPa 0,0 mm 2,5 km/h (1 Bft) E-SE 112 0 min 0 W/m 16,4 C 24,2 C 5,4 km/h (2 Bft)
17/07/2012 14:20 24,3 C 63 % 1028,9 hPa 0,0 mm 0,4 km/h (0 Bft) O-NO 292 0 min 0 W/m 16,8 C 24,3 C 3,6 km/h (1 Bft)
17/07/2012 14:30 24,7 C 62 % 1028,9 hPa 0,0 mm 2,2 km/h (1 Bft) NO 315 0 min 0 W/m 16,9 C 24,7 C 7,2 km/h (2 Bft)
17/07/2012 14:40 24,9 C 62 % 1028,7 hPa 0,0 mm 4,3 km/h (1 Bft) N-NO 337 0 min 0 W/m 17,1 C 24,9 C 6,5 km/h (2 Bft)
17/07/2012 14:50 25,1 C 61 % 1028,6 hPa 0,0 mm 5,0 km/h (1 Bft) N 360 0 min 0 W/m 17,0 C 25,1 C 5,0 km/h (1 Bft)
17/07/2012 15:00 24,9 C 60 % 1028,6 hPa 0,0 mm 1,8 km/h (1 Bft) NE 45 0 min 0 W/m 16,6 C 24,9 C 4,3 km/h (1 Bft)
17/07/2012 15:10 24,8 C 61 % 1028,4 hPa 0,0 mm 2,2 km/h (1 Bft) N 360 0 min 0 W/m 16,8 C 24,8 C 2,2 km/h (1 Bft)
17/07/2012 15:20 24,6 C 62 % 1028,3 hPa 0,0 mm 0,4 km/h (0 Bft) N-NO 337 0 min 0 W/m 16,8 C 24,6 C 3,2 km/h (1 Bft)
17/07/2012 15:30 24,9 C 63 % 1028,2 hPa 0,0 mm 2,2 km/h (1 Bft) O-SO 247 0 min 0 W/m 17,4 C 24,9 C 8,3 km/h (2 Bft)
17/07/2012 15:40 25,4 C 61 % 1028,1 hPa 0,0 mm 4,0 km/h (1 Bft) N 360 0 min 0 W/m 17,3 C 25,4 C 9,7 km/h (2 Bft)
17/07/2012 15:50 25,7 C 61 % 1028,0 hPa 0,0 mm 0,0 km/h (0 Bft) O-NO 292 0 min 0 W/m 17,6 C 25,7 C 0,0 km/h (0 Bft)
17/07/2012 16:00 25,9 C 60 % 1027,8 hPa 0,0 mm 1,4 km/h (1 Bft) N 360 0 min 0 W/m 17,5 C 25,9 C 3,6 km/h (1 Bft)
17/07/2012 16:10 26,2 C 60 % 1027,8 hPa 0,0 mm 0,4 km/h (0 Bft) N-NO 337 0 min 0 W/m 17,8 C 26,2 C 4,0 km/h (1 Bft)
17/07/2012 16:20 26,4 C 59 % 1027,8 hPa 0,0 mm 2,2 km/h (1 Bft) O-NO 292 0 min 0 W/m 17,7 C 26,4 C 6,8 km/h (2 Bft)
17/07/2012 16:30 26,3 C 58 % 1027,6 hPa 0,0 mm 2,5 km/h (1 Bft) SO 225 0 min 0 W/m 17,4 C 26,3 C 4,0 km/h (1 Bft)
17/07/2012 16:40 26,2 C 59 % 1027,5 hPa 0,0 mm 0,4 km/h (0 Bft) N-NO 337 0 min 0 W/m 17,5 C 26,2 C 3,2 km/h (1 Bft)
17/07/2012 16:50 26,2 C 59 % 1027,5 hPa 0,0 mm 2,9 km/h (1 Bft) N 360 0 min 0 W/m 17,5 C 26,2 C 4,3 km/h (1 Bft)
17/07/2012 17:00 26,3 C 57 % 1027,4 hPa 0,0 mm 0,0 km/h (0 Bft) S 180 0 min 0 W/m 17,1 C 26,3 C 0,0 km/h (0 Bft)
17/07/2012 17:10 26,2 C 59 % 1027,3 hPa 0,0 mm 0,0 km/h (0 Bft) E 90 0 min 0 W/m 17,5 C 26,2 C 0,0 km/h (0 Bft)
17/07/2012 17:20 26,3 C 58 % 1027,2 hPa 0,0 mm 1,1 km/h (1 Bft) S-SO 202 0 min 0 W/m 17,4 C 26,3 C 4,3 km/h (1 Bft)
17/07/2012 17:30 26,6 C 57 % 1027,2 hPa 0,0 mm 0,0 km/h (0 Bft) NO 315 0 min 0 W/m 17,4 C 26,6 C 0,0 km/h (0 Bft)
17/07/2012 17:40 26,9 C 58 % 1027,1 hPa 0,0 mm 1,8 km/h (1 Bft) NO 315 0 min 0 W/m 17,9 C 26,9 C 8,3 km/h (2 Bft)
17/07/2012 17:50 26,9 C 57 % 1027,0 hPa 0,0 mm 1,8 km/h (1 Bft) O-SO 247 0 min 0 W/m 17,6 C 26,9 C 4,3 km/h (1 Bft)
17/07/2012 18:00 26,9 C 58 % 1026,8 hPa 0,0 mm 1,8 km/h (1 Bft) N-NO 337 0 min 0 W/m 17,9 C 26,9 C 4,0 km/h (1 Bft)
17/07/2012 18:10 27,1 C 57 % 1026,8 hPa 0,0 mm 2,5 km/h (1 Bft) N-NE 22 0 min 0 W/m 17,8 C 27,1 C 4,0 km/h (1 Bft)
17/07/2012 18:20 27,4 C 57 % 1026,7 hPa 0,0 mm 4,0 km/h (1 Bft) N-NE 22 0 min 0 W/m 18,1 C 27,4 C 4,0 km/h (1 Bft)
17/07/2012 18:30 27,6 C 55 % 1026,6 hPa 0,0 mm 0,7 km/h (0 Bft) NO 315 0 min 0 W/m 17,7 C 27,6 C 4,0 km/h (1 Bft)
17/07/2012 18:40 27,6 C 55 % 1026,5 hPa 0,0 mm 0,0 km/h (0 Bft) SO 225 0 min 0 W/m 17,7 C 27,6 C 0,0 km/h (0 Bft)
17/07/2012 18:50 27,5 C 55 % 1026,4 hPa 0,0 mm 0,0 km/h (0 Bft) SO 225 0 min 0 W/m 17,6 C 27,5 C 0,0 km/h (0 Bft)
17/07/2012 19:00 27,6 C 55 % 1026,2 hPa 0,0 mm 1,8 km/h (1 Bft) N-NO 337 0 min 0 W/m 17,7 C 27,6 C 4,7 km/h (1 Bft)
17/07/2012 19:10 27,6 C 56 % 1026,2 hPa 0,0 mm 0,7 km/h (0 Bft) E 90 0 min 0 W/m 18,0 C 27,6 C 0,7 km/h (0 Bft)
17/07/2012 19:20 27,6 C 56 % 1026,1 hPa 0,0 mm 1,4 km/h (1 Bft) O-NO 292 0 min 0 W/m 18,0 C 27,6 C 1,4 km/h (1 Bft)
17/07/2012 19:30 27,6 C 55 % 1026,1 hPa 0,0 mm 0,0 km/h (0 Bft) N-NE 22 0 min 0 W/m 17,7 C 27,6 C 0,0 km/h (0 Bft)
17/07/2012 19:40 27,4 C 56 % 1026,1 hPa 0,0 mm 0,7 km/h (0 Bft) NO 315 0 min 0 W/m 17,8 C 27,4 C 3,6 km/h (1 Bft)
17/07/2012 19:50 27,3 C 55 % 1026,0 hPa 0,0 mm 0,0 km/h (0 Bft) O-NO 292 0 min 0 W/m 17,4 C 27,3 C 3,2 km/h (1 Bft)
17/07/2012 20:00 27,1 C 56 % 1025,9 hPa 0,0 mm 0,0 km/h (0 Bft) O-NO 292 0 min 0 W/m 17,5 C 27,1 C 0,0 km/h (0 Bft)
17/07/2012 20:10 26,9 C 56 % 1025,8 hPa 0,0 mm 0,0 km/h (0 Bft) N-NO 337 0 min 0 W/m 17,4 C 26,9 C 0,0 km/h (0 Bft)
17/07/2012 20:20 26,3 C 57 % 1025,8 hPa 0,0 mm 0,0 km/h (0 Bft) N 360 0 min 0 W/m 17,1 C 26,3 C 0,0 km/h (0 Bft)
17/07/2012 20:30 25,6 C 59 % 1025,6 hPa 0,0 mm 2,9 km/h (1 Bft) NE 45 0 min 0 W/m 17,0 C 25,6 C 4,3 km/h (1 Bft)
17/07/2012 20:40 24,9 C 60 % 1025,6 hPa 0,0 mm 0,0 km/h (0 Bft) NE 45 0 min 0 W/m 16,6 C 24,9 C 0,0 km/h (0 Bft)
17/07/2012 20:50 24,3 C 62 % 1025,5 hPa 0,0 mm 0,0 km/h (0 Bft) NE 45 0 min 0 W/m 16,5 C 24,3 C 0,0 km/h (0 Bft)
17/07/2012 21:00 23,8 C 63 % 1025,4 hPa 0,0 mm 0,0 km/h (0 Bft) NE 45 0 min 0 W/m 16,3 C 23,8 C 0,0 km/h (0 Bft)
17/07/2012 21:10 23,4 C 65 % 1025,4 hPa 0,0 mm 0,0 km/h (0 Bft) NE 45 0 min 0 W/m 16,4 C 23,4 C 0,0 km/h (0 Bft)
_ Min-Heure 06:10 19:50 21:10 - 21:10 - - - - 06:10 06:10 21:10
Minimum _ 9,4 C 55 % 1025,4 hPa - 0,0 km/h (0 Bft) - - - - 7,7 C 9,4 C 0,0 km/h (0 Bft)
_ Max-Heure 19:30 08:30 13:00 21:10 14:50 - - 21:10 21:10 18:20 19:30 15:40
Maximum _ 27,6 C 91 % 1029,6 hPa 0,0 mm 5,0 km/h
N (1 Bft)
- - 0 min 0 W/m 18,1 C 27,6 C 9,7 km/h
N (2 Bft)
Moyenne _ 18,9 C 72 % 1028,3 hPa #0,0 mm 0,7 km/h (0 Bft) S-SO - #0 min. 0 W/m 13,5 C 18,9 C 1,5 km/h (1 Bft)
Saint Bonnet de Bellac- Haute Vienne - France